Location: Dover
(39.1580°N, 75.5250°W)
Time: 08:17:51
(UTC-04:00)

ISS - All Passes

Search period start: 28 March 2015 00:00
Search period end: 07 April 2015 00:00
Orbit: 396 x 406 km, 51.6° (Epoch: 28 March)

Date Brightness Start Highest point End Pass type
(mag) Time Alt. Az. Time Alt. Az. Time Alt. Az.
28 Mar - 00:53:16 10° W 00:56:05 26° NNW 00:58:53 10° NNE night (unlit)
28 Mar - 02:32:56 10° NNW 02:33:22 10° N 02:33:47 10° N night (unlit)
28 Mar - 04:09:52 10° N 04:10:57 11° NNE 04:12:04 10° NNE visible
28 Mar - 05:45:05 10° NW 05:48:07 35° NNE 05:51:07 10° E visible
28 Mar - 07:21:46 10° WNW 07:24:24 23° SW 07:26:59 10° S daylight
28 Mar - 22:24:09 10° S 22:26:23 18° SE 22:28:42 10° E night (unlit)
28 Mar - 23:59:27 10° WSW 00:02:35 44° NNW 00:05:44 10° NE night (unlit)
29 Mar - 01:38:10 10° NW 01:39:40 12° NNW 01:41:06 10° NNE night (unlit)
29 Mar - 04:51:59 10° NNW 04:54:34 22° NNE 04:57:12 10° E visible
29 Mar - 06:28:01 10° WNW 06:31:09 47° SW 06:34:15 10° SSE daylight
29 Mar - 23:05:54 10° SW 23:09:09 89° NW 23:12:26 10° NE night (unlit)
30 Mar - 00:43:47 10° WNW 00:45:58 16° NNW 00:48:07 10° NNE night (unlit)
30 Mar - 03:58:55 10° NNW 04:00:56 15° NNE 04:03:00 10° ENE visible
30 Mar - 05:34:33 10° NW 05:37:48 79° NE 05:41:01 10° SE visible
30 Mar - 22:12:41 10° SSW 22:15:48 42° SE 22:18:54 10° ENE night (unlit)
30 Mar - 23:49:35 10° W 23:52:19 24° NNW 23:55:01 10° NNE night (unlit)
31 Mar - 03:05:55 10° N 03:07:12 12° NNE 03:08:32 10° NE night (unlit)
31 Mar - 04:41:14 10° NW 04:44:19 40° NNE 04:47:23 10° ESE visible
31 Mar - 06:18:07 10° W 06:20:33 19° SW 06:22:55 10° S visible
31 Mar - 21:19:58 10° S 21:22:28 21° SE 21:25:01 10° E night (unlit)
31 Mar - 22:55:38 10° WSW 22:58:43 39° NNW 23:01:48 10° NE night (unlit)
01 Apr - 00:34:32 10° NW 00:35:50 12° NNW 00:37:06 10° N night (unlit)
01 Apr - 03:48:00 10° NNW 03:50:43 24° NNE 03:53:26 10° E visible
01 Apr - 05:24:09 10° WNW 05:27:13 40° SW 05:30:15 10° SSE visible
01 Apr - 20:28:50 10° SE 20:29:10 10° SE 20:29:40 10° ESE visible
01 Apr - 22:01:56 10° SW 22:05:11 76° NW 22:08:27 10° NE night (unlit)
01 Apr - 23:40:00 10° WNW 23:42:03 15° NNW 23:44:03 10° NNE night (unlit)
02 Apr - 02:54:50 10° NNW 02:57:00 17° NNE 02:59:12 10° ENE night (unlit)
02 Apr - 04:30:33 10° NW 04:33:47 88° SW 04:37:01 10° SE visible
02 Apr - 21:08:33 10° SW 21:11:43 50° SE 21:14:53 10° ENE visible
02 Apr - 22:45:40 10° W 22:48:17 22° NNW 22:50:53 10° NNE night (unlit)
03 Apr - 02:01:44 10° NNW 02:03:12 12° NNE 02:04:43 10° NE night (unlit)
03 Apr - 03:37:07 10° NW 03:40:15 46° NE 03:43:22 10° ESE night (unlit)
03 Apr - 05:14:13 10° W 05:16:25 17° SW 05:18:32 10° S visible
03 Apr - 20:15:36 10° S 20:18:17 24° SE 20:21:00 10° ENE visible
03 Apr - 21:51:33 10° W 21:54:35 34° NNW 21:57:37 10° NE visible
03 Apr - 23:30:37 10° NNW 23:31:45 11° NNW 23:32:50 10° N night (unlit)
04 Apr - 01:08:48 10° N 01:09:19 10° N 01:09:51 10° NNE night (unlit)
04 Apr - 02:43:46 10° NNW 02:46:35 26° NNE 02:49:24 10° E night (unlit)
04 Apr - 04:20:02 10° WNW 04:23:01 34° SW 04:25:58 10° SSE night (unlit)
04 Apr - 19:23:37 10° SSE 19:24:53 12° SE 19:26:17 10° ESE daylight
04 Apr - 20:57:42 10° WSW 21:00:56 65° NW 21:04:11 10° NE visible
04 Apr - 22:35:57 10° NW 22:37:52 14° NNW 22:39:44 10° NNE visible
05 Apr - 01:50:30 10° NNW 01:52:48 18° NNE 01:55:08 10° ENE night (unlit)
05 Apr - 03:26:17 10° NW 03:29:31 75° SW 03:32:44 10° SE night (unlit)
05 Apr - 20:04:09 10° SW 20:07:22 59° SE 20:10:35 10° ENE visible
05 Apr - 21:41:29 10° WNW 21:44:00 20° NNW 21:46:29 10° NNE visible
06 Apr - 00:57:16 10° NNW 00:58:55 13° NNE 01:00:36 10° NE night (unlit)
06 Apr - 02:32:44 10° NW 02:35:55 53° NE 02:39:05 10° ESE night (unlit)
06 Apr - 04:10:06 10° W 04:12:01 15° SW 04:13:50 10° SSW night (unlit)
06 Apr - 19:11:01 10° SSW 19:13:50 28° SE 19:16:42 10° ENE daylight
06 Apr - 20:47:13 10° W 20:50:11 31° NNW 20:53:09 10° NE visible
06 Apr - 22:26:28 10° NNW 22:27:23 11° N 22:28:17 10° N visible
